Project,Study,Ord_Occ,Event_Num,Cast_ID,Date_Time_UTC,Date_Time_PST,Lat_Dec,Lon_Dec,Sta_ID,Line,Sta,Depth,Pressure,PrQ,Temp1,Temp1Q,Temp2,Temp2Q,TempAve,Salt1,Salt1Q,Salt1_Corr,Salt2,Salt2Q,Salt2_Corr,SaltAve_Corr,Ox1,Ox1Q,Ox1_CruiseCorr,Ox1_StaCorr,Ox2,Ox2Q,Ox2_CruiseCorr,Ox2_StaCorr,OxAve_StaCorr,Ox1uM,Ox1uM_CruiseCorr,Ox1uM_StaCorr,Ox2uM,Ox2uM_CruiseCorr,Ox2uM_StaCorr,OxAveuM_StaCorr,FluorV,FluorQ,EstChl_CruiseCorr,EstChl_StaCorr,ISUSV,ISUSQ,EstNO3_CruiseCorr,EstNO3_StaCorr,SigThetaTS1,SigThetaTS1Q,SigThetaTS2,SigThetaTS2Q,BAT,XMiss,TransQ,pH,pHQ,SPAR,SPARQ,PAR,PARQ,PoT1,PoT2,DynHt,SVA,OxSat1,OxSat2,BTL_Depth,BTL_Temp,SaltB,OxB,OxBuM,Chl-a,Phaeo,NO3,NO2,NH4,PO4,SIL
CalCOFI,2007SR,041,43,2007_041u,20-Jul-2020 14:02:16,20-Jul-2020 06:02:16,32.98982,-120.34977,086.7 060.0,086.7,060.0,516.000,520.317,,5.8511,,5.8502,,5.8507,34.3224,,34.3226,34.3241,,34.3257,34.3242,0.2715,,0.2660,0.2756,1.9106,,0.6200,0.5647,0.4202,11.804,11.8341,24.7037,83.082,,34.7839,29.7438,0.0325,,,,-99.0,,-99.0,-99.0,27.0415,,27.0430,,0.6356,85.3087,,7.543,,1.0464E+02,,1.0000E-12,,5.8063,5.8054,0.8924,,3.898,27.435,516,5.851,34.3203,0.264,11.54,,,39.81,0.00,0.07,3.15,80.82
CalCOFI,2007SR,041,43,2007_041u,20-Jul-2020 14:03:13,20-Jul-2020 06:03:13,32.98977,-120.34973,086.7 060.0,086.7,060.0,515.000,519.307,,5.8618,,5.8621,,5.8620,34.3216,,34.3218,34.3229,,34.3245,34.3232,0.2710,,0.2655,0.2750,1.8674,,0.5168,0.4581,0.3666,11.781,11.8101,24.6842,81.202,,30.9576,27.8209,0.0331,,,,-99.0,,-99.0,-99.0,27.0395,,27.0405,,0.6353,85.3150,,7.543,,1.1225E+02,,1.0000E-12,,5.8170,5.8173,0.8963,,3.892,26.822,,,,,,,,,,,,
CalCOFI,2007SR,041,43,2007_041u,20-Jul-2020 14:03:12,20-Jul-2020 06:03:12,32.98980,-120.34974,086.7 060.0,086.7,060.0,514.000,518.298,,5.8496,,5.8497,,5.8497,34.3223,,34.3225,34.3235,,34.3251,34.3238,0.2713,,0.2658,0.2753,1.8718,,0.5273,0.4690,0.3722,11.796,11.8257,24.6969,81.395,,31.3504,28.0237,0.0332,,,,-99.0,,-99.0,-99.0,27.0416,,27.0426,,0.6353,85.3148,,7.543,,1.1233E+02,,1.0000E-12,,5.8050,5.8051,0.8963,,3.895,26.878,,,,,,,,,,,,
CalCOFI,2007SR,041,43,2007_041u,20-Jul-2020 14:03:14,20-Jul-2020 06:03:14,32.98980,-120.34974,086.7 060.0,086.7,060.0,513.000,517.288,,5.8525,,5.8526,,5.8526,34.3220,,34.3222,34.3234,,34.3250,34.3236,0.2712,,0.2657,0.2752,1.8713,,0.5262,0.4677,0.3715,11.794,11.8237,24.6952,81.370,,31.2995,27.9974,0.0324,,,,-99.0,,-99.0,-99.0,27.0410,,27.0421,,0.6353,85.3148,,7.543,,1.1235E+02,,1.0000E-12,,5.8080,5.8081,0.8963,,3.895,26.871,,,,,,,,,,,,
CalCOFI,2007SR,041,43,2007_041u,20-Jul-2020 14:03:15,20-Jul-2020 06:03:15,32.98980,-120.34976,086.7 060.0,086.7,060.0,512.000,516.278,,5.8582,,5.8580,,5.8581,34.3216,,34.3218,34.3232,,34.3248,34.3233,0.2731,,0.2677,0.2772,1.8634,,0.5073,0.4482,0.3627,11.876,11.9093,24.7647,81.027,,30.6014,27.6831,0.0332,,,,-99.0,,-99.0,-99.0,27.0399,,27.0412,,0.6353,85.3148,,7.543,,1.1235E+02,,1.0000E-12,,5.8137,5.8135,0.8963,,3.922,26.761,,,,,,,,,,,,
CalCOFI,2007SR,041,43,2007_041u,20-Jul-2020 14:03:17,20-Jul-2020 06:03:17,32.98980,-120.34976,086.7 060.0,086.7,060.0,511.000,515.269,,5.8656,,5.8665,,5.8661,34.3209,,34.3211,34.3223,,34.3239,34.3225,0.2764,,0.2711,0.2807,1.8658,,0.5130,0.4542,0.3675,12.017,12.0564,24.8842,81.132,,30.8151,27.8497,0.0317,,,,-99.0,,-99.0,-99.0,27.0384,,27.0395,,0.6353,85.3148,,7.543,,1.1235E+02,,1.0000E-12,,5.8212,5.8221,0.8963,,3.970,26.801,,,,,,,,,,,,
CalCOFI,2007SR,041,43,2007_041u,20-Jul-2020 14:03:18,20-Jul-2020 06:03:18,32.98980,-120.34976,086.7 060.0,086.7,060.0,510.000,514.259,,5.8684,,5.8687,,5.8686,34.3207,,34.3209,34.3220,,34.3236,34.3223,0.2776,,0.2724,0.2819,1.8663,,0.5142,0.4554,0.3687,12.073,12.1149,24.9317,81.154,,30.8599,27.8958,0.0330,,,,-99.0,,-99.0,-99.0,27.0379,,27.0389,,0.6353,85.3148,,7.543,,1.1235E+02,,1.0000E-12,,5.8241,5.8244,0.8963,,3.988,26.810,,,,,,,,,,,,
CalCOFI,2007SR,041,43,2007_041u,20-Jul-2020 14:03:19,20-Jul-2020 06:03:19,32.98980,-120.34976,086.7 060.0,086.7,060.0,509.000,513.250,,5.8754,,5.8758,,5.8756,34.3205,,34.3207,34.3221,,34.3237,34.3222,0.2746,,0.2692,0.2788,1.8636,,0.5078,0.4487,0.3638,11.940,11.9761,24.8190,81.038,,30.6238,27.7214,0.0318,,,,-99.0,,-99.0,-99.0,27.0369,,27.0381,,0.6353,85.3148,,7.543,,1.1235E+02,,1.0000E-12,,5.8311,5.8315,0.8963,,3.945,26.776,,,,,,,,,,,,
CalCOFI,2007SR,041,43,2007_041u,20-Jul-2020 14:03:20,20-Jul-2020 06:03:20,32.98980,-120.34976,086.7 060.0,086.7,060.0,508.000,512.240,,5.8920,,5.8942,,5.8931,34.3198,,34.3200,34.3212,,34.3228,34.3214,0.2744,,0.2690,0.2786,1.8627,,0.5056,0.4465,0.3626,11.931,11.9667,24.8113,80.999,,30.5444,27.6779,0.0329,,,,-99.0,,-99.0,-99.0,27.0343,,27.0351,,0.6353,85.3148,,7.543,,1.1235E+02,,1.0000E-12,,5.8478,5.8500,0.8963,,3.943,26.774,,,,,,,,,,,,
CalCOFI,2007SR,041,43,2007_041u,20-Jul-2020 14:03:21,20-Jul-2020 06:03:21,32.98980,-120.34976,086.7 060.0,086.7,060.0,507.000,511.230,,5.9015,,5.9016,,5.9016,34.3192,,34.3194,34.3207,,34.3223,34.3209,0.2790,,0.2738,0.2834,1.8632,,0.5068,0.4477,0.3656,12.131,12.1755,24.9809,81.019,,30.5851,27.7830,0.0323,,,,-99.0,,-99.0,-99.0,27.0327,,27.0338,,0.6353,85.3148,,7.543,,1.1346E+02,,1.0000E-12,,5.8573,5.8574,0.8963,,4.010,26.785,,,,,,,,,,,,
CalCOFI,2007SR,041,43,2007_041u,20-Jul-2020 14:03:22,20-Jul-2020 06:03:22,32.98981,-120.34976,086.7 060.0,086.7,060.0,506.000,510.221,,5.9126,,5.9139,,5.9133,34.3185,,34.3187,34.3201,,34.3217,34.3202,0.2830,,0.2780,0.2876,1.8529,,0.4822,0.4223,0.3550,12.306,12.3581,25.1292,80.574,,29.6794,27.4043,0.0322,,,,-99.0,,-99.0,-99.0,27.0307,,27.0318,,0.6353,85.3148,,7.543,,1.1428E+02,,1.0000E-12,,5.8685,5.8698,0.8963,,4.069,26.645,,,,,,,,,,,,
CalCOFI,2007SR,041,43,2007_041u,20-Jul-2020 14:03:23,20-Jul-2020 06:03:23,32.98980,-120.34976,086.7 060.0,086.7,060.0,505.000,509.211,,5.9328,,5.9335,,5.9332,34.3178,,34.3180,34.3192,,34.3208,34.3194,0.2849,,0.2800,0.2896,1.8528,,0.4820,0.4221,0.3559,12.389,12.4448,25.1996,80.570,,29.6712,27.4354,0.0332,,,,-99.0,,-99.0,-99.0,27.0276,,27.0286,,0.6358,85.3038,,7.543,,1.1426E+02,,1.0000E-12,,5.8887,5.8894,0.8963,,4.099,26.656,,,,,,,,,,,,
CalCOFI,2007SR,041,43,2007_041u,20-Jul-2020 14:03:24,20-Jul-2020 06:03:24,32.98980,-120.34976,086.7 060.0,086.7,060.0,504.000,508.202,,5.9472,,5.9481,,5.9477,34.3163,,34.3165,34.3178,,34.3194,34.3180,0.2852,,0.2803,0.2899,1.8553,,0.4880,0.4283,0.3591,12.401,12.4573,25.2097,80.678,,29.8911,27.5504,0.0332,,,,-99.0,,-99.0,-99.0,27.0246,,27.0257,,0.6364,85.2913,,7.543,,1.1426E+02,,1.0000E-12,,5.9031,5.9040,0.8963,,4.104,26.701,,,,,,,,,,,,
CalCOFI,2007SR,041,43,2007_041u,20-Jul-2020 14:03:25,20-Jul-2020 06:03:25,32.98982,-120.34976,086.7 060.0,086.7,060.0,503.000,507.192,,5.9585,,5.9596,,5.9591,34.3152,,34.3154,34.3165,,34.3181,34.3168,0.2813,,0.2762,0.2858,1.8545,,0.4860,0.4263,0.3561,12.231,12.2798,25.0656,80.643,,29.8198,27.4427,0.0321,,,,-99.0,,-99.0,-99.0,27.0223,,27.0232,,0.6363,85.2924,,7.543,,1.1426E+02,,1.0000E-12,,5.9145,5.9156,0.8963,,4.049,26.696,,,,,,,,,,,,
CalCOFI,2007SR,041,43,2007_041u,20-Jul-2020 14:03:26,20-Jul-2020 06:03:26,32.98982,-120.34976,086.7 060.0,086.7,060.0,502.000,506.182,,5.9627,,5.9630,,5.9629,34.3149,,34.3151,34.3163,,34.3179,34.3165,0.2836,,0.2786,0.2882,1.8541,,0.4851,0.4253,0.3568,12.330,12.3832,25.1496,80.626,,29.7852,27.4674,0.0316,,,,-99.0,,-99.0,-99.0,27.0216,,27.0226,,0.6364,85.2913,,7.543,,1.1363E+02,,1.0000E-12,,5.9187,5.9190,0.8963,,4.082,26.692,,,,,,,,,,,,
CalCOFI,2007SR,041,43,2007_041u,20-Jul-2020 14:03:27,20-Jul-2020 06:03:27,32.98982,-120.34976,086.7 060.0,086.7,060.0,501.000,505.173,,5.9644,,5.9647,,5.9646,34.3150,,34.3152,34.3165,,34.3181,34.3167,0.2876,,0.2828,0.2924,1.8538,,0.4844,0.4246,0.3585,12.504,12.5648,25.2970,80.612,,29.7567,27.5269,0.0321,,,,-99.0,,-99.0,-99.0,27.0214,,27.0225,,0.6364,85.2913,,7.543,,1.1331E+02,,1.0000E-12,,5.9205,5.9208,0.8963,,4.140,26.689,,,,,,,,,,,,
CalCOFI,2007SR,041,43,2007_041u,20-Jul-2020 14:03:28,20-Jul-2020 06:03:28,32.98982,-120.34976,086.7 060.0,086.7,060.0,500.000,504.163,,5.9654,,5.9660,,5.9657,34.3151,,34.3153,34.3165,,34.3181,34.3167,0.2865,,0.2817,0.2912,1.8528,,0.4820,0.4221,0.3567,12.457,12.5158,25.2572,80.567,,29.6651,27.4612,0.0330,,,,-99.0,,-99.0,-99.0,27.0214,,27.0224,,0.6367,85.2844,,7.543,,1.1236E+02,,1.0000E-12,,5.9217,5.9222,0.8963,,4.124,26.675,,,,,,,,,,,,
CalCOFI,2007SR,041,43,2007_041u,20-Jul-2020 14:03:29,20-Jul-2020 06:03:29,32.98982,-120.34976,086.7 060.0,086.7,060.0,499.000,503.154,,5.9733,,5.9738,,5.9736,34.3151,,34.3153,34.3167,,34.3183,34.3168,0.2849,,0.2800,0.2896,1.8486,,0.4720,0.4117,0.3507,12.390,12.4458,25.2004,80.385,,29.2947,27.2476,0.0320,,,,-99.0,,-99.0,-99.0,27.0203,,27.0215,,0.6364,85.2913,,7.543,,1.1354E+02,,1.0000E-12,,5.9296,5.9301,0.8963,,4.103,26.619,,,,,,,,,,,,
CalCOFI,2007SR,041,43,2007_041u,20-Jul-2020 14:03:30,20-Jul-2020 06:03:30,32.98982,-120.34976,086.7 060.0,086.7,060.0,498.000,502.144,,5.9904,,5.9901,,5.9903,34.3137,,34.3139,34.3152,,34.3168,34.3154,0.2897,,0.2850,0.2946,1.8528,,0.4820,0.4221,0.3584,12.599,12.6640,25.3776,80.569,,29.6692,27.5234,0.0318,,,,-99.0,,-99.0,-99.0,27.0170,,27.0183,,0.6364,85.2913,,7.543,,1.1426E+02,,1.0000E-12,,5.9467,5.9464,0.8963,,4.174,26.690,,,,,,,,,,,,
CalCOFI,2007SR,041,43,2007_041u,20-Jul-2020 14:03:31,20-Jul-2020 06:03:31,32.98982,-120.34976,086.7 060.0,086.7,060.0,497.000,501.135,,5.9979,,5.9991,,5.9985,34.3129,,34.3131,34.3143,,34.3159,34.3145,0.2938,,0.2893,0.2989,1.8528,,0.4820,0.4221,0.3605,12.775,12.8477,25.5268,80.569,,29.6692,27.5980,0.0325,,,,-99.0,,-99.0,-99.0,27.0155,,27.0164,,0.6364,85.2913,,7.543,,1.1426E+02,,1.0000E-12,,5.9543,5.9554,0.8963,,4.233,26.696,,,,,,,,,,,,
CalCOFI,2007SR,041,43,2007_041u,20-Jul-2020 14:03:32,20-Jul-2020 06:03:32,32.98982,-120.34977,086.7 060.0,086.7,060.0,496.000,500.125,,6.0040,,6.0046,,6.0043,34.3126,,34.3128,34.3139,,34.3155,34.3142,0.2936,,0.2891,0.2987,1.8442,,0.4615,0.4009,0.3498,12.767,12.8394,25.5200,80.195,,28.9080,27.2140,0.0323,,,,-99.0,,-99.0,-99.0,27.0145,,27.0154,,0.6364,85.2913,,7.543,,1.1426E+02,,1.0000E-12,,5.9605,5.9610,0.8963,,4.231,26.575,,,,,,,,,,,,
CalCOFI,2007SR,041,43,2007_041u,20-Jul-2020 14:03:33,20-Jul-2020 06:03:33,32.98982,-120.34978,086.7 060.0,086.7,060.0,495.000,499.116,,6.0167,,6.0174,,6.0171,34.3120,,34.3122,34.3136,,34.3152,34.3137,0.2965,,0.2921,0.3017,1.8417,,0.4555,0.3947,0.3482,12.892,12.9699,25.6259,80.085,,28.6841,27.1550,0.0316,,,,-99.0,,-99.0,-99.0,27.0124,,27.0136,,0.6364,85.2913,,7.543,,1.1426E+02,,1.0000E-12,,5.9732,5.9739,0.8963,,4.273,26.547,,,,,,,,,,,,
CalCOFI,2007SR,041,43,2007_041u,20-Jul-2020 14:03:34,20-Jul-2020 06:03:34,32.98982,-120.34978,086.7 060.0,086.7,060.0,494.000,498.106,,6.0394,,6.0398,,6.0396,34.3102,,34.3104,34.3116,,34.3132,34.3118,0.2986,,0.2943,0.3039,1.8493,,0.4736,0.4135,0.3587,12.983,13.0649,25.7031,80.418,,29.3619,27.5325,0.0329,,,,-99.0,,-99.0,-99.0,27.0081,,27.0092,,0.6366,85.2877,,7.543,,1.1426E+02,,1.0000E-12,,5.9959,5.9963,0.8963,,4.306,26.670,,,,,,,,,,,,
CalCOFI,2007SR,041,43,2007_041u,20-Jul-2020 14:03:35,20-Jul-2020 06:03:35,32.98982,-120.34978,086.7 060.0,086.7,060.0,493.000,497.097,,6.0468,,6.0470,,6.0469,34.3082,,34.3084,34.3094,,34.3110,34.3097,0.2991,,0.2948,0.3044,1.8377,,0.4459,0.3848,0.3446,13.007,13.0899,25.7234,79.912,,28.3320,27.0277,0.0326,,,,-99.0,,-99.0,-99.0,27.0055,,27.0065,,0.6365,85.2885,,7.543,,1.1426E+02,,1.0000E-12,,6.0033,6.0035,0.8963,,4.314,26.506,,,,,,,,,,,,
CalCOFI,2007SR,041,43,2007_041u,20-Jul-2020 14:03:36,20-Jul-2020 06:03:36,32.98982,-120.34978,086.7 060.0,086.7,060.0,492.000,496.087,,6.0475,,6.0478,,6.0477,34.3069,,34.3071,34.3082,,34.3098,34.3085,0.3031,,0.2990,0.3086,1.8425,,0.4574,0.3967,0.3527,13.181,13.2715,25.8709,80.124,,28.7635,27.3172,0.0328,,,,-99.0,,-99.0,-99.0,27.0045,,27.0054,,0.6364,85.2904,,7.543,,1.1426E+02,,1.0000E-12,,6.0042,6.0044,0.8963,,4.372,26.577,,,,,,,,,,,,
CalCOFI,2007SR,041,43,2007_041u,20-Jul-2020 14:03:37,20-Jul-2020 06:03:37,32.98982,-120.34978,086.7 060.0,086.7,060.0,491.000,495.078,,6.0555,,6.0552,,6.0554,34.3064,,34.3066,34.3081,,34.3097,34.3082,0.3004,,0.2962,0.3058,1.8420,,0.4562,0.3954,0.3506,13.064,13.1494,25.7717,80.102,,28.7187,27.2452,0.0335,,,,-99.0,,-99.0,-99.0,27.0030,,27.0044,,0.6364,85.2913,,7.543,,1.1426E+02,,1.0000E-12,,6.0122,6.0119,0.8963,,4.334,26.574,,,,,,,,,,,,
CalCOFI,2007SR,041,43,2007_041u,20-Jul-2020 14:03:38,20-Jul-2020 06:03:38,32.98982,-120.34978,086.7 060.0,086.7,060.0,490.000,494.068,,6.0705,,6.0706,,6.0706,34.3057,,34.3059,34.3073,,34.3089,34.3074,0.3029,,0.2988,0.3084,1.8410,,0.4538,0.3930,0.3507,13.172,13.2622,25.8633,80.059,,28.6312,27.2473,0.0333,,,,-99.0,,-99.0,-99.0,27.0006,,27.0018,,0.6364,85.2913,,7.543,,1.1528E+02,,1.0000E-12,,6.0272,6.0274,0.8963,,4.371,26.569,,,,,,,,,,,,
CalCOFI,2007SR,041,43,2007_041u,20-Jul-2020 14:03:39,20-Jul-2020 06:03:39,32.98982,-120.34978,086.7 060.0,086.7,060.0,489.000,493.059,,6.0808,,6.0827,,6.0818,34.3063,,34.3065,34.3079,,34.3095,34.3080,0.3071,,0.3032,0.3128,1.8402,,0.4519,0.3910,0.3519,13.355,13.4532,26.0184,80.023,,28.5579,27.2882,0.0329,,,,-99.0,,-99.0,-99.0,26.9997,,27.0007,,0.6366,85.2865,,7.543,,1.1601E+02,,1.0000E-12,,6.0376,6.0395,0.8963,,4.433,26.565,,,,,,,,,,,,
CalCOFI,2007SR,041,43,2007_041u,20-Jul-2020 14:03:40,20-Jul-2020 06:03:40,32.98982,-120.34978,086.7 060.0,086.7,060.0,488.000,492.049,,6.0884,,6.0909,,6.0897,34.3063,,34.3065,34.3075,,34.3091,34.3078,0.3086,,0.3048,0.3143,1.8396,,0.4505,0.3895,0.3519,13.420,13.5210,26.0735,79.995,,28.5009,27.2872,0.0326,,,,-99.0,,-99.0,-99.0,26.9987,,26.9994,,0.6364,85.2914,,7.543,,1.1421E+02,,1.0000E-12,,6.0453,6.0478,0.8963,,4.455,26.561,,,,,,,,,,,,
CalCOFI,2007SR,041,43,2007_041u,20-Jul-2020 14:03:41,20-Jul-2020 06:03:41,32.98982,-120.34978,086.7 060.0,086.7,060.0,487.000,491.040,,6.1017,,6.1027,,6.1022,34.3041,,34.3043,34.3056,,34.3072,34.3058,0.3084,,0.3045,0.3141,1.8388,,0.4486,0.3875,0.3508,13.409,13.5096,26.0642,79.961,,28.4317,27.2480,0.0319,,,,-99.0,,-99.0,-99.0,26.9953,,26.9964,,0.6364,85.2913,,7.543,,1.1426E+02,,1.0000E-12,,6.0586,6.0596,0.8963,,4.453,26.556,,,,,,,,,,,,
CalCOFI,2007SR,041,43,2007_041u,20-Jul-2020 14:03:42,20-Jul-2020 06:03:42,32.98982,-120.34978,086.7 060.0,086.7,060.0,486.000,490.030,,6.1050,,6.1055,,6.1053,34.3031,,34.3033,34.3041,,34.3057,34.3045,0.3058,,0.3018,0.3114,1.8384,,0.4476,0.3866,0.3490,13.300,13.3958,25.9718,79.946,,28.4012,27.1865,0.0327,,,,-99.0,,-99.0,-99.0,26.9941,,26.9949,,0.6364,85.2913,,7.543,,1.1426E+02,,1.0000E-12,,6.0620,6.0625,0.8963,,4.417,26.553,,,,,,,,,,,,
CalCOFI,2007SR,041,43,2007_041u,20-Jul-2020 14:03:43,20-Jul-2020 06:03:43,32.98982,-120.34978,086.7 060.0,086.7,060.0,485.000,489.021,,6.1052,,6.1054,,6.1053,34.3023,,34.3025,34.3033,,34.3049,34.3037,0.3079,,0.3040,0.3136,1.8382,,0.4471,0.3861,0.3499,13.388,13.4876,26.0464,79.936,,28.3809,27.2137,0.0325,,,,-99.0,,-99.0,-99.0,26.9934,,26.9942,,0.6364,85.2913,,7.544,,1.1426E+02,,1.0000E-12,,6.0623,6.0625,0.8963,,4.447,26.549,,,,,,,,,,,,
CalCOFI,2007SR,041,43,2007_041u,20-Jul-2020 14:03:44,20-Jul-2020 06:03:44,32.98982,-120.34978,086.7 060.0,086.7,060.0,484.000,488.011,,6.1047,,6.1049,,6.1048,34.3019,,34.3021,34.3030,,34.3046,34.3034,0.3128,,0.3091,0.3187,1.8399,,0.4512,0.3903,0.3545,13.603,13.7121,26.2286,80.012,,28.5355,27.3821,0.0324,,,,-99.0,,-99.0,-99.0,26.9931,,26.9940,,0.6364,85.2913,,7.544,,1.1595E+02,,1.0000E-12,,6.0619,6.0620,0.8963,,4.518,26.574,,,,,,,,,,,,
CalCOFI,2007SR,041,43,2007_041u,20-Jul-2020 14:03:45,20-Jul-2020 06:03:45,32.98984,-120.34978,086.7 060.0,086.7,060.0,483.000,487.002,,6.1057,,6.1058,,6.1058,34.3013,,34.3015,34.3027,,34.3043,34.3029,0.3080,,0.3041,0.3137,1.8382,,0.4471,0.3861,0.3499,13.395,13.4949,26.0523,79.935,,28.3788,27.2156,0.0325,,,,-99.0,,-99.0,-99.0,26.9926,,26.9937,,0.6363,85.2932,,7.543,,1.1616E+02,,1.0000E-12,,6.0629,6.0631,0.8963,,4.449,26.549,,,,,,,,,,,,
CalCOFI,2007SR,041,43,2007_041u,20-Jul-2020 14:03:47,20-Jul-2020 06:03:47,32.98984,-120.34978,086.7 060.0,086.7,060.0,482.000,485.992,,6.1058,,6.1061,,6.1060,34.3011,,34.3013,34.3024,,34.3040,34.3027,0.3099,,0.3061,0.3157,1.8368,,0.4438,0.3826,0.3492,13.475,13.5785,26.1201,79.874,,28.2547,27.1874,0.0323,,,,-99.0,,-99.0,-99.0,26.9923,,26.9934,,0.6364,85.2922,,7.543,,1.1616E+02,,1.0000E-12,,6.0632,6.0634,0.8963,,4.475,26.529,,,,,,,,,,,,
CalCOFI,2007SR,041,43,2007_041u,20-Jul-2020 14:03:48,20-Jul-2020 06:03:48,32.98984,-120.34978,086.7 060.0,086.7,060.0,481.000,484.983,,6.1069,,6.1070,,6.1070,34.3010,,34.3012,34.3023,,34.3039,34.3026,0.3104,,0.3066,0.3162,1.8385,,0.4479,0.3868,0.3515,13.498,13.6025,26.1396,79.948,,28.4053,27.2725,0.0329,,,,-99.0,,-99.0,-99.0,26.9921,,26.9931,,0.6362,85.2949,,7.544,,1.1616E+02,,1.0000E-12,,6.0643,6.0645,0.8963,,4.483,26.554,,,,,,,,,,,,
CalCOFI,2007SR,041,43,2007_041u,20-Jul-2020 14:03:48,20-Jul-2020 06:03:48,32.98983,-120.34978,086.7 060.0,086.7,060.0,480.000,483.973,,6.1070,,6.1072,,6.1071,34.3011,,34.3013,34.3020,,34.3036,34.3025,0.3173,,0.3138,0.3234,1.8371,,0.4445,0.3834,0.3534,13.798,13.9156,26.3939,79.887,,28.2811,27.3375,0.0326,,,,-99.0,,-99.0,-99.0,26.9922,,26.9929,,0.6362,85.2948,,7.544,,1.1616E+02,,1.0000E-12,,6.0646,6.0648,0.8963,,4.583,26.534,,,,,,,,,,,,
CalCOFI,2007SR,041,43,2007_041u,20-Jul-2020 14:03:49,20-Jul-2020 06:03:49,32.98982,-120.34978,086.7 060.0,086.7,060.0,479.000,482.964,,6.1084,,6.1091,,6.1088,34.3014,,34.3016,34.3025,,34.3041,34.3029,0.3161,,0.3126,0.3222,1.8366,,0.4433,0.3821,0.3522,13.747,13.8624,26.3507,79.865,,28.2363,27.2935,0.0333,,,,-99.0,,-99.0,-99.0,26.9922,,26.9930,,0.6364,85.2914,,7.544,,1.1616E+02,,1.0000E-12,,6.0660,6.0667,0.8963,,4.566,26.528,,,,,,,,,,,,
CalCOFI,2007SR,041,43,2007_041u,20-Jul-2020 14:03:50,20-Jul-2020 06:03:50,32.98984,-120.34978,086.7 060.0,086.7,060.0,478.000,481.954,,6.1204,,6.1217,,6.1211,34.3016,,34.3018,34.3029,,34.3045,34.3032,0.3123,,0.3086,0.3182,1.8376,,0.4457,0.3846,0.3514,13.580,13.6881,26.2091,79.911,,28.3300,27.2696,0.0329,,,,-99.0,,-99.0,-99.0,26.9909,,26.9917,,0.6364,85.2913,,7.544,,1.1616E+02,,1.0000E-12,,6.0781,6.0794,0.8963,,4.512,26.551,,,,,,,,,,,,
CalCOFI,2007SR,041,43,2007_041u,20-Jul-2020 14:03:51,20-Jul-2020 06:03:51,32.98984,-120.34980,086.7 060.0,086.7,060.0,477.000,480.945,,6.1364,,6.1370,,6.1367,34.3012,,34.3014,34.3026,,34.3042,34.3028,0.3121,,0.3084,0.3180,1.8333,,0.4354,0.3740,0.3460,13.571,13.6787,26.2015,79.724,,27.9494,27.0755,0.0325,,,,-99.0,,-99.0,-99.0,26.9885,,26.9895,,0.6364,85.2913,,7.543,,1.1616E+02,,1.0000E-12,,6.0941,6.0947,0.8963,,4.510,26.498,,,,,,,,,,,,
CalCOFI,2007SR,041,43,2007_041u,20-Jul-2020 14:03:52,20-Jul-2020 06:03:52,32.98984,-120.34980,086.7 060.0,086.7,060.0,476.000,479.936,,6.1549,,6.1530,,6.1540,34.3013,,34.3015,34.3028,,34.3044,34.3030,0.3124,,0.3087,0.3183,1.8358,,0.4414,0.3801,0.3492,13.586,13.6943,26.2142,79.831,,28.1671,27.1907,0.0324,,,,-99.0,,-99.0,-99.0,26.9862,,26.9876,,0.6373,85.2728,,7.544,,1.1616E+02,,1.0000E-12,,6.1126,6.1107,0.8963,,4.518,26.544,,,,,,,,,,,,
CalCOFI,2007SR,041,43,2007_041u,20-Jul-2020 14:03:53,20-Jul-2020 06:03:53,32.98984,-120.34980,086.7 060.0,086.7,060.0,475.000,478.926,,6.1653,,6.1640,,6.1647,34.3009,,34.3011,34.3024,,34.3040,34.3026,0.3193,,0.3159,0.3255,1.8326,,0.4338,0.3723,0.3489,13.885,14.0065,26.4677,79.692,,27.8842,27.1760,0.0332,,,,-99.0,,-99.0,-99.0,26.9845,,26.9859,,0.6369,85.2810,,7.545,,1.1616E+02,,1.0000E-12,,6.1231,6.1218,0.8963,,4.618,26.504,,,,,,,,,,,,
CalCOFI,2007SR,041,43,2007_041u,20-Jul-2020 14:03:54,20-Jul-2020 06:03:54,32.98984,-120.34980,086.7 060.0,086.7,060.0,474.000,477.917,,6.1717,,6.1717,,6.1717,34.3008,,34.3010,34.3022,,34.3038,34.3024,0.3209,,0.3176,0.3272,1.8318,,0.4319,0.3703,0.3488,13.957,14.0816,26.5287,79.657,,27.8130,27.1709,0.0324,,,,-99.0,,-99.0,-99.0,26.9836,,26.9847,,0.6364,85.2912,,7.545,,1.1616E+02,,1.0000E-12,,6.1296,6.1295,0.8963,,4.642,26.497,,,,,,,,,,,,
CalCOFI,2007SR,041,43,2007_041u,20-Jul-2020 14:03:55,20-Jul-2020 06:03:55,32.98984,-120.34980,086.7 060.0,086.7,060.0,473.000,476.907,,6.1783,,6.1789,,6.1786,34.3006,,34.3008,34.3020,,34.3036,34.3022,0.3240,,0.3208,0.3304,1.8318,,0.4319,0.3703,0.3504,14.090,14.2205,26.6414,79.658,,27.8150,27.2282,0.0325,,,,-99.0,,-99.0,-99.0,26.9827,,26.9836,,0.6364,85.2913,,7.545,,1.1805E+02,,1.0000E-12,,6.1362,6.1368,0.8963,,4.687,26.502,,,,,,,,,,,,
CalCOFI,2007SR,041,43,2007_041u,20-Jul-2020 14:03:56,20-Jul-2020 06:03:56,32.98984,-120.34980,086.7 060.0,086.7,060.0,472.000,475.898,,6.1988,,6.2055,,6.2022,34.3009,,34.3011,34.3019,,34.3035,34.3023,0.3241,,0.3210,0.3306,1.8303,,0.4283,0.3666,0.3486,14.093,14.2236,26.6440,79.592,,27.6807,27.1624,0.0333,,,,-99.0,,-99.0,-99.0,26.9802,,26.9802,,0.6364,85.2913,,7.546,,1.1806E+02,,1.0000E-12,,6.1567,6.1634,0.8963,,4.691,26.496,,,,,,,,,,,,
CalCOFI,2007SR,041,43,2007_041u,20-Jul-2020 14:03:57,20-Jul-2020 06:03:57,32.98984,-120.34980,086.7 060.0,086.7,060.0,471.000,474.888,,6.2276,,6.2263,,6.2270,34.2981,,34.2983,34.2997,,34.3013,34.2998,0.3266,,0.3236,0.3332,1.8295,,0.4264,0.3646,0.3489,14.204,14.3395,26.7381,79.559,,27.6135,27.1758,0.0322,,,,-99.0,,-99.0,-99.0,26.9743,,26.9758,,0.6364,85.2913,,7.547,,1.1750E+02,,1.0000E-12,,6.1855,6.1842,0.8963,,4.731,26.497,,,,,,,,,,,,
CalCOFI,2007SR,041,43,2007_041u,20-Jul-2020 14:03:58,20-Jul-2020 06:03:58,32.98984,-120.34980,086.7 060.0,086.7,060.0,470.000,473.879,,6.2340,,6.2346,,6.2343,34.2979,,34.2981,34.2993,,34.3009,34.2995,0.3276,,0.3246,0.3342,1.8312,,0.4304,0.3688,0.3515,14.248,14.3854,26.7754,79.632,,27.7621,27.2688,0.0321,,,,-99.0,,-99.0,-99.0,26.9734,,26.9744,,0.6364,85.2913,,7.546,,1.1616E+02,,1.0000E-12,,6.1920,6.1926,0.8963,,4.746,26.527,,,,,,,,,,,,
CalCOFI,2007SR,041,43,2007_041u,20-Jul-2020 14:03:59,20-Jul-2020 06:03:59,32.98984,-120.34980,086.7 060.0,086.7,060.0,469.000,472.870,,6.2403,,6.2384,,6.2394,34.2977,,34.2979,34.2992,,34.3008,34.2994,0.3312,,0.3284,0.3380,1.8330,,0.4347,0.3732,0.3556,14.405,14.5493,26.9084,79.713,,27.9270,27.4177,0.0329,,,,-99.0,,-99.0,-99.0,26.9724,,26.9738,,0.6364,85.2913,,7.546,,1.1616E+02,,1.0000E-12,,6.1984,6.1965,0.8963,,4.799,26.556,,,,,,,,,,,,
CalCOFI,2007SR,041,43,2007_041u,20-Jul-2020 14:04:00,20-Jul-2020 06:04:00,32.98984,-120.34980,086.7 060.0,086.7,060.0,468.000,471.860,,6.2475,,6.2475,,6.2475,34.2971,,34.2973,34.2985,,34.3001,34.2987,0.3256,,0.3225,0.3321,1.8383,,0.4474,0.3863,0.3592,14.161,14.2946,26.7016,79.941,,28.3910,27.5463,0.0325,,,,-99.0,,-99.0,-99.0,26.9709,,26.9721,,0.6364,85.2913,,7.547,,1.1780E+02,,1.0000E-12,,6.2056,6.2056,0.8963,,4.718,26.637,,,,,,,,,,,,
CalCOFI,2007SR,041,43,2007_041u,20-Jul-2020 14:04:01,20-Jul-2020 06:04:01,32.98984,-120.34980,086.7 060.0,086.7,060.0,467.000,470.851,,6.2495,,6.2497,,6.2496,34.2970,,34.2972,34.2983,,34.2999,34.2986,0.3276,,0.3246,0.3342,1.8317,,0.4316,0.3700,0.3521,14.248,14.3854,26.7754,79.656,,27.8110,27.2932,0.0326,,,,-99.0,,-99.0,-99.0,26.9706,,26.9716,,0.6366,85.2872,,7.547,,1.1805E+02,,1.0000E-12,,6.2077,6.2079,0.8963,,4.748,26.544,,,,,,,,,,,,
CalCOFI,2007SR,041,43,2007_041u,20-Jul-2020 14:04:02,20-Jul-2020 06:04:02,32.98984,-120.34980,086.7 060.0,086.7,060.0,466.000,469.841,,6.2522,,6.2520,,6.2521,34.2970,,34.2972,34.2982,,34.2998,34.2985,0.3326,,0.3298,0.3394,1.8324,,0.4333,0.3718,0.3556,14.463,14.6098,26.9576,79.685,,27.8700,27.4138,0.0325,,,,-99.0,,-99.0,-99.0,26.9702,,26.9713,,0.6369,85.2800,,7.547,,1.1806E+02,,1.0000E-12,,6.2105,6.2103,0.8963,,4.820,26.555,,,,,,,,,,,,
CalCOFI,2007SR,041,43,2007_041u,20-Jul-2020 14:04:04,20-Jul-2020 06:04:04,32.98984,-120.34980,086.7 060.0,086.7,060.0,465.000,468.832,,6.2531,,6.2533,,6.2532,34.2967,,34.2969,34.2979,,34.2995,34.2982,0.3286,,0.3257,0.3353,1.8320,,0.4323,0.3708,0.3531,14.292,14.4313,26.8127,79.666,,27.8313,27.3220,0.0328,,,,-99.0,,-99.0,-99.0,26.9699,,26.9708,,0.6364,85.2915,,7.547,,1.1806E+02,,1.0000E-12,,6.2115,6.2117,0.8963,,4.763,26.549,,,,,,,,,,,,